Location: Barbery
(46.3255°N, 3.2443°E)
Time: 20:18:17
(UTC+00:00)

Daily predictions for brighter satellites

Satellite Brightness Start Highest point End
(mag) Time Altitude Azimuth Time Altitude Azimuth Time Altitude Azimuth
COSMOS 2406 3.8 17:17:33 10° NNW 17:22:58 39° NE 17:28:19 10° ESE
Nadezhda 3 Rocket 4.1 17:17:06 10° S 17:23:16 63° E 17:29:32 10° NNE
Cosmos 1934 Rocket 4.4 17:18:35 10° N 17:24:35 43° ENE 17:30:36 10° SE
Unknown 3.8 17:20:45 10° WSW 17:24:53 71° NNW 17:29:02 10° ENE
Unknown 3.9 17:22:22 10° WSW 17:26:30 69° NNW 17:30:39 10° ENE
Cosmos 1825 Rocket 3.5 17:24:09 10° N 17:28:33 76° E 17:32:56 10° SSE
CORIOLIS 4.4 17:23:30 10° SSE 17:28:51 80° WSW 17:34:15 10° NNW
Abrixas rocket 4.3 17:27:42 10° SSE 17:28:54 12° SE 17:30:07 10° ESE
Cosmos 1953 2.3 17:25:09 10° S 17:29:11 68° E 17:33:14 10° NNE
Cosmos 1953 Rocket 3.6 17:26:45 10° N 17:31:04 55° ENE 17:35:19 10° SSE
Unknown 4.5 17:29:00 10° W 17:32:40 39° NNW 17:36:22 10° NE
Unknown 4.0 17:28:52 10° WSW 17:32:58 63° NNW 17:37:06 10° ENE
Unknown 4.0 17:29:06 10° WSW 17:33:13 64° NNW 17:37:21 10° ENE
YAOGAN 6 3.2 17:30:19 10° SE 17:33:43 37° ENE 17:37:06 10° N
Unknown 4.0 17:29:47 10° WSW 17:33:54 63° NNW 17:38:01 10° ENE
Unknown 3.9 17:32:49 10° NW 17:35:42 33° NNE 17:38:29 11° E
Cosmos 1758 4.1 17:32:46 10° SSW 17:36:41 56° WNW 17:40:36 10° N
Unknown 4.0 17:33:43 10° WSW 17:37:48 60° NNW 17:41:56 10° ENE
Unknown 4.0 17:34:08 10° WSW 17:38:14 60° NNW 17:42:21 10° ENE
Cosmos 1844 Rocket 2.7 17:32:42 10° SSW 17:38:22 86° ESE 17:44:03 10° NNE
Unknown 4.1 17:35:55 10° WSW 17:40:00 57° NNW 17:44:07 10° NE
FengYun 1-2 T 4.3 17:35:08 10° SSE 17:40:41 61° ENE 17:46:13 10° N
Unknown 4.1 17:39:15 10° WSW 17:43:19 55° NNW 17:47:25 10° NE
Unknown 4.1 17:39:38 10° WSW 17:43:43 56° NNW 17:47:48 10° NE
Cosmos 1606 Rocket 3.5 17:39:23 10° S 17:43:46 83° E 17:48:10 10° N
Unknown 4.1 17:40:49 10° WSW 17:44:54 56° NNW 17:49:00 10° NE
Unknown 2.5 17:42:43 10° NW 17:45:22 65° NNE 17:47:38 13° ESE
Envisat 3.0 17:42:54 10° SSE 17:47:59 85° ENE 17:53:06 10° NNW
Unknown 4.2 17:43:59 10° WSW 17:48:03 55° NNW 17:52:07 10° NE
Meteor 1-16 Rocket 4.2 17:43:25 10° S 17:48:53 59° E 17:54:13 10° NNE
BREEZE-M DEB (TANK) 4.0 17:44:36 10° SSW 17:49:20 27° SSE 17:51:13 14° E
Unknown 4.2 17:47:29 10° W 17:51:33 52° NNW 17:55:27 11° NE
Cosmos 1758 Rocket 4.4 17:47:59 10° NNW 17:52:20 56° W 17:56:43 10° S
Unknown 4.3 17:49:10 10° W 17:53:12 51° NNW 17:57:03 11° NE
Cosmos 1908 3.9 17:50:22 10° SSE 17:53:52 32° E 17:57:22 10° NNE
Unknown 4.3 17:50:51 10° W 17:54:53 50° NNW 17:58:39 12° NE
Cosmos 1461 4.1 17:52:28 10° NNW 17:55:51 24° NE 17:58:03 16° E
Unknown 4.3 17:52:31 10° W 17:56:33 49° NNW 18:00:15 12° NE
Lacrosse 5 rocket 2.4 17:54:41 10° WNW 17:58:16 42° SW 18:02:01 10° SSE
ASTEX 1 3.3 17:53:53 10° N 17:58:51 75° E 18:03:48 10° S
Cosmos 1356 3.5 17:55:48 10° S 17:59:08 50° E 18:02:30 10° NNE
Cosmos 2278 Rocket 2.8 17:54:52 10° SSE 17:59:52 33° ESE 18:04:54 10° NE
Unknown 4.4 17:55:53 10° W 17:59:54 48° NNW 18:03:27 13° NE
Cosmos 1939 Rocket 3.6 17:56:57 10° SE 18:00:31 32° ENE 18:04:08 10° N
Unknown 4.4 17:57:37 10° W 18:01:37 47° NNW 18:05:06 13° NE
Unknown 4.4 18:00:12 10° NW 18:03:14 29° N 18:05:05 18° ENE
Unknown 4.4 17:59:15 10° W 18:03:15 46° NNW 18:06:39 14° NE
Cosmos 1844 3.9 17:58:44 10° SSW 18:04:27 78° WNW 18:10:16 10° NNE
Unknown 4.4 18:00:52 10° W 18:04:52 46° NNW 18:08:12 14° NE
ATLAS 5 CENTAUR R/B 2.9 18:01:12 10° WSW 18:05:16 39° NW 18:09:52 10° NNE
Unknown 4.4 18:01:18 10° W 18:05:18 45° NNW 18:08:36 14° NE
Unknown 4.4 18:04:02 10° W 18:08:02 46° NNW 18:11:14 15° NE
SKYMED 2 3.6 18:04:16 10° NNE 18:08:38 85° WNW 18:12:59 10° SSW
Cosmos 489 Rocket 4.4 18:02:50 10° S 18:08:56 63° ESE 18:15:04 10° NNE
Cosmos 1328 3.7 18:05:40 10° N 18:09:40 79° E 18:13:37 10° SSE
Unknown 4.4 18:07:26 10° W 18:11:25 45° NNW 18:14:29 16° NE
YAOGAN 1 2.5 18:08:18 10° SSE 18:12:38 85° ENE 18:16:59 10° NNW
Unknown 4.5 18:09:06 10° W 18:13:04 44° NNW 18:16:03 16° NE
Falcon 9 debris 4.3 18:14:35 10° NW 18:17:44 32° NNE 18:18:58 24° NE
Cosmos 292 Rocket 3.6 18:14:50 10° SSW 18:19:34 79° ESE 18:24:21 10° NNE
CSL-04 Rocket 3.8 18:17:20 10° SSE 18:22:52 79° WSW 18:28:24 10° NNW
CZ-4 R/B 2.2 18:19:19 10° S 18:23:24 56° W 18:27:34 10° NNW
USA 238 DEB 4.2 18:18:26 10° S 18:24:24 36° ESE 18:28:53 17° ENE
USA 238 4.2 18:18:34 10° S 18:24:31 36° ESE 18:28:55 18° ENE
Unknown 4.3 18:24:42 10° NW 18:27:55 32° NNE 18:28:48 28° NE
Shenzhou-11 Module 2.5 18:26:54 10° WSW 18:29:32 38° S 18:29:46 37° SSE
Ariane Rocket 3.0 18:25:34 10° SSE 18:30:34 63° ENE 18:35:38 10° N
Cosmos 1726 2.7 18:27:00 10° SSW 18:30:36 58° WNW 18:34:13 10° N
NOAA 11 4.1 18:25:18 10° SSE 18:30:44 74° ENE 18:36:10 10° N
Lacrosse 5 2.4 18:25:57 10° NW 18:30:48 44° NNE 18:32:47 30° ENE
Cosmos 1242 Rocket 3.9 18:29:54 10° NNW 18:33:26 43° W 18:36:55 10° SSW
CZ-2D R/B 3.2 18:34:34 10° SSE 18:38:25 86° WSW 18:42:19 10° NNW
ARGOS 4.1 18:38:25 27° ENE 18:38:35 27° ENE 18:43:03 10° N
Cosmos 2058 Rocket 4.1 18:36:25 10° SSW 18:40:38 47° WNW 18:44:52 10° N
Cosmos 1833 Rocket 2.6 18:35:09 10° NNW 18:40:47 69° ENE 18:44:18 23° SE
Cosmos 921 Rocket 4.5 18:37:01 10° SW 18:41:16 40° WNW 18:45:30 10° N
Cosmos 1339 Rocket 4.4 18:40:23 10° S 18:46:28 85° W 18:52:39 10° N
SPOT 3 Rocket 4.0 18:48:34 37° ENE 18:48:55 38° ENE 18:53:42 10° N
NOSS 3-2 (A) 3.7 18:44:48 10° S 18:50:07 41° ESE 18:51:20 37° E
Cosmos 1777 Rocket 4.3 18:46:11 10° NNW 18:51:22 66° WSW 18:56:31 10° S
HJ-1C 3.2 18:51:33 83° NE 18:51:33 83° NE 18:54:53 10° N
Cosmos 1459 Rocket 4.1 18:50:28 10° N 18:56:32 53° ENE 18:58:57 34° SE
Cosmos 1605 Rocket 4.5 18:53:11 10° NNW 18:59:17 60° W 19:05:16 10° S
Cosmos 2058 3.6 18:55:10 10° N 18:58:10 39° NNE 18:58:10 39° NNE
Gbstr 26 Del rocket 4.1 18:54:57 10° WNW 19:01:14 85° NNE 19:04:05 41° ESE
Cosmos 2082 Rocket 2.1 18:57:10 10° NNW 19:02:54 72° ENE 19:04:38 45° SE
Abrixas rocket 3.8 19:01:17 10° SW 19:02:52 27° SW 19:02:52 27° SW
SJ 16-02 3.3 19:01:00 10° N 19:02:25 16° NNE 19:02:25 16° NNE
Resurs 01 Rocket 3.9 19:09:04 13° NNE 19:09:04 13° NNE 19:09:42 10° NNE
H-2A R/B 2.4 19:06:53 45° ENE 19:06:53 45° ENE 19:11:42 10° N
Cosmos 1727 Rocket 4.0 19:01:45 10° S 19:07:55 84° W 19:14:09 10° N
Cosmos 1802 Rocket 4.0 19:10:10 10° N 19:16:35 62° ENE 19:17:48 53° SE
Cosmos 2173 Rocket 3.8 19:13:35 10° N 19:19:54 78° E 19:22:02 44° SSE
SJ-11-01 4.3 19:22:28 73° SSW 19:22:51 80° WSW 19:27:34 10° NNW
In-Cosmos 22 Rocket 4.0 19:25:08 10° N 19:30:27 84° NE 19:30:27 84° NE
Cosmos 1898 Rocket 4.0 19:28:32 10° NNW 19:32:33 48° NNE 19:32:33 48° NNE
Cosmos 1461 3.9 19:31:11 10° NW 19:34:29 43° W 19:34:29 43° W
CZ-2C R/B 3.9 19:37:02 43° NNE 19:37:02 43° NNE 19:41:13 10° N
ADEOS Rocket 3.4 19:28:30 10° NNE 19:36:16 71° ESE 19:43:29 10° S
Cosmos 1725 Rocket 4.3 19:32:10 10° N 19:37:16 52° NE 19:37:16 52° NE
Cosmos 1000 Rocket 4.4 19:33:49 10° S 19:40:00 88° W 19:46:18 10° N
Cosmos 2100 Rocket 4.1 19:34:34 10° NNW 19:40:45 70° W 19:43:19 36° SSW
Cosmos 2278 Rocket 3.3 19:38:26 10° SW 19:43:49 43° NW 19:49:14 10° NNE
ATLAS 5 CENTAUR R/B 4.4 19:48:51 10° NW 19:51:24 14° NNW 19:53:19 12° N
ATLAS CENTAUR R/B 4.3 19:54:36 10° N 19:55:01 11° N 19:55:01 11° N
Cosmos 2016 Rocket 4.1 19:57:20 10° NNW 20:03:18 72° WNW 20:03:18 72° WNW
Lacrosse 5 3.4 20:08:59 10° WNW 20:12:00 33° W 20:12:00 33° W
USA 238 DEB 4.1 20:08:27 10° WSW 20:15:04 57° NW 20:16:23 50° N
USA 238 4.1 20:08:33 10° WSW 20:15:11 58° NW 20:16:26 51° N
ARGOS 4.3 20:19:56 40° WNW 20:19:56 40° WNW 20:23:51 10° NNW
SJ 16-02 4.4 20:39:07 10° NNW 20:39:24 12° NW 20:39:24 12° NW
H-2A R/B 4.1 20:47:31 24° WNW 20:47:31 24° WNW 20:50:43 10° NW
Cosmos 2082 Rocket 4.4 20:42:29 10° WNW 20:46:21 19° W 20:46:31 19° WSW
